GW4109 Weather Reports


time (UTC)temp
F
wind
direction
speed
knots
gust
knots
rain 1hr
in
rain 24hr
in
rain mn
in
humidity
%
barometer
mb
20260503220931 87 242 18.2 25.2 0.00 0.00 0.00 23 1010.1
20260503220427 88 230 22.6 27.8 0.00 0.00 0.00 22 1010.2
20260503215924 89 240 10.4 16.5 0.00 0.00 0.00 21 1009.9
20260503215421 87 246 13.9 26.9 0.00 0.00 0.00 21 1010.1
20260503214919 89 237 12.2 21.7 0.00 0.00 0.00 22 1010.5
20260503214416 89 234 13.0 21.7 0.00 0.00 0.00 20 1010.5
20260503213914 88 227 5.2 23.5 0.00 0.00 0.00 20 1010.5
20260503213411 89 253 14.8 25.2 0.00 0.00 0.00 20 1010.3
20260503212908 90 227 5.2 17.4 0.00 0.00 0.00 19 1010.2
20260503212406 90 230 9.6 22.6 0.00 0.00 0.00 19 1010.4
20260503211902 89 231 13.9 25.2 0.00 0.00 0.00 18 1010.3
20260503211359 90 224 13.0 22.6 0.00 0.00 0.00 18 1010.4
20260503210854 90 221 9.6 23.5 0.00 0.00 0.00 19 1010.5
20260503210352 89 240 20.9 28.7 0.00 0.00 0.00 19 1010.5
20260503205847 90 226 11.3 20.9 0.00 0.00 0.00 19 1010.4
20260503205344 89 228 11.3 23.5 0.00 0.00 0.00 19 1010.4
20260503204840 89 230 17.4 22.6 0.00 0.00 0.00 20 1010.3
20260503204337 88 229 23.5 26.1 0.00 0.00 0.00 21 1010.5
20260503203835 88 253 13.0 25.2 0.00 0.00 0.00 21 1010.4
20260503203332 88 242 19.1 30.4 0.00 0.00 0.00 22 1010.5
20260503202829 88 240 18.2 26.1 0.00 0.00 0.00 22 1010.1
20260503202327 90 246 13.0 22.6 0.00 0.00 0.00 20 1010.4
20260503201825 92 253 13.9 20.9 0.00 0.00 0.00 20 1010.6
20260503201321 91 232 13.9 16.5 0.00 0.00 0.00 19 1010.5
20260503200819 90 228 13.9 21.7 0.00 0.00 0.00 20 1010.5
20260503200315 90 264 14.8 20.9 0.00 0.00 0.00 19 1010.6
20260503195812 92 251 8.7 14.8 0.00 0.00 0.00 17 1010.7
20260503195309 91 245 9.6 15.6 0.00 0.00 0.00 18 1010.8
20260503194806 92 258 10.4 16.5 0.00 0.00 0.00 17 1010.8
20260503194302 91 244 9.6 15.6 0.00 0.00 0.00 18 1011.1
20260503193758 92 254 13.0 19.1 0.00 0.00 0.00 18 1010.9
20260503193254 91 232 11.3 18.2 0.00 0.00 0.00 19 1011.0
20260503192750 92 256 9.6 15.6 0.00 0.00 0.00 18 1010.9
20260503192245 91 263 5.2 13.0 0.00 0.00 0.00 18 1011.1
20260503191743 92 231 8.7 15.6 0.00 0.00 0.00 17 1011.2
20260503191240 92 265 9.6 14.8 0.00 0.00 0.00 18 1011.2
20260503190736 91 234 11.3 16.5 0.00 0.00 0.00 18 1011.2
20260503190233 91 260 5.2 8.7 0.00 0.00 0.00 18 1011.4
20260503185731 91 259 7.8 13.0 0.00 0.00 0.00 18 1011.5
20260503185226 92 257 11.3 16.5 0.00 0.00 0.00 18 1011.6
20260503184721 91 244 11.3 18.2 0.00 0.00 0.00 18 1011.7
20260503184217 92 190 3.5 13.0 0.00 0.00 0.00 18 1011.7
20260503183714 91 236 11.3 15.6 0.00 0.00 0.00 18 1011.8
20260503183211 90 245 7.8 16.5 0.00 0.00 0.00 18 1011.7
20260503182709 91 246 7.8 14.8 0.00 0.00 0.00 17 1012.0
20260503182208 91 240 8.7 19.1 0.00 0.00 0.00 18 1012.0
20260503181703 91 248 7.8 19.1 0.00 0.00 0.00 17 1012.1
20260503181200 91 245 10.4 13.0 0.00 0.00 0.00 17 1012.1
20260503180657 91 252 7.0 11.3 0.00 0.00 0.00 18 1012.1
20260503180156 91 235 8.7 13.0 0.00 0.00 0.00 18 1012.4
20260503175652 91 243 4.3 4.3 0.00 0.00 0.00 16 1012.3
20260503175150 91 236 1.7 7.0 0.00 0.00 0.00 17 1012.3
20260503174646 90 233 8.7 11.3 0.00 0.00 0.00 16 1012.5
20260503174143 91 220 1.7 13.9 0.00 0.00 0.00 17 1012.6
20260503173638 90 200 1.7 13.0 0.00 0.00 0.00 17 1012.5
20260503173130 91 264 5.2 10.4 0.00 0.00 0.00 16 1012.3
20260503172626 89 257 10.4 13.0 0.00 0.00 0.00 18 1012.5
20260503172123 89 253 3.5 6.1 0.00 0.00 0.00 17 1012.5
20260503171620 91 233 8.7 13.0 0.00 0.00 0.00 16 1012.7
20260503171117 89 236 7.8 15.6 0.00 0.00 0.00 16 1012.4
20260503170614 90 207 4.3 7.0 0.00 0.00 0.00 16 1012.6
20260503170110 90 231 7.0 10.4 0.00 0.00 0.00 16 1012.5
20260503151006 84 45 1.7 1.7 0.00 0.00 0.00 18 1012.8
20260503150502 84 39 1.7 3.5 0.00 0.00 0.00 18 1012.9
20260503131349 69 17 1.7 2.6 0.00 0.00 0.00 24 1011.5
20260503130847 69 54 0.0 1.7 0.00 0.00 0.00 24 1011.5
20260503130344 68 271 1.7 2.6 0.00 0.00 0.00 24 1011.4
20260503110733 75 188 0.0 2.6 0.00 0.00 0.00 20 1011.4
20260503110230 74 191 0.0 2.6 0.00 0.00 0.00 21 1011.3
20260503100155 73 222 1.7 1.7 0.00 0.00 0.00 21 1011.4
20260503090114 77 76 0.0 0.9 0.00 0.00 0.00 19 1012.1
20260503081550 75 121 0.0 0.9 0.00 0.00 0.00 21 1012.8
20260503081048 75 236 0.0 1.7 0.00 0.00 0.00 21 1013.0
20260503080544 76 18 0.0 1.7 0.00 0.00 0.00 21 1012.8
20260503072517 78 10 1.7 1.7 0.00 0.00 0.00 22 1013.0
20260503072014 78 119 0.0 1.7 0.00 0.00 0.00 21 1013.2
20260503071511 77 125 0.0 0.9 0.00 0.00 0.00 22 1013.0
20260503071008 78 135 0.0 0.9 0.00 0.00 0.00 22 1013.2
20260503070504 77 125 0.0 1.7 0.00 0.00 0.00 23 1013.3
20260503054922 79 174 0.0 0.0 0.00 0.00 0.00 22 1013.4
20260503054419 79 89 0.0 1.7 0.00 0.00 0.00 22 1013.4
20260503053917 78 65 1.7 1.7 0.00 0.00 0.00 23 1013.5
20260503053414 79 323 0.9 1.7 0.00 0.00 0.00 22 1013.2
20260503052910 79 72 1.7 2.6 0.00 0.00 0.00 22 1013.4
20260503052408 79 284 0.0 0.0 0.00 0.00 0.00 22 1013.4
20260503051904 80 71 0.9 1.7 0.00 0.00 0.00 21 1013.2
20260503051400 80 315 0.0 2.6 0.00 0.00 0.00 22 1013.3
20260503050857 80 27 0.0 2.6 0.00 0.00 0.00 21 1013.3
20260503050353 80 264 0.9 1.7 0.00 0.00 0.00 22 1013.2
20260503045851 81 2 3.5 3.5 0.00 0.00 0.00 22 1013.2
20260503045349 82 294 0.0 1.7 0.00 0.00 0.00 21 1013.2
20260503044845 82 98 3.5 4.3 0.00 0.00 0.00 21 1013.1
20260503044342 83 80 2.6 3.5 0.00 0.00 0.00 19 1013.0
20260503043839 83 89 0.0 1.7 0.00 0.00 0.00 19 1012.9
20260503043336 83 119 1.7 3.5 0.00 0.00 0.00 19 1012.8
20260503042832 84 95 1.7 2.6 0.00 0.00 0.00 19 1012.9
20260503042329 84 138 0.9 1.7 0.00 0.00 0.00 17 1012.8
20260503041825 85 286 0.0 3.5 0.00 0.00 0.00 16 1012.4
20260503041322 85 263 1.7 3.5 0.00 0.00 0.00 16 1012.6
20260503040820 86 250 1.7 2.6 0.00 0.00 0.00 16 1012.8
20260503040317 86 260 4.3 7.0 0.00 0.00 0.00 16 1012.7
20260503035814 85 265 4.3 6.1 0.00 0.00 0.00 17 1012.5
20260503035312 86 250 5.2 6.1 0.00 0.00 0.00 17 1012.6
20260503034809 85 247 4.3 5.2 0.00 0.00 0.00 17 1012.6
20260503034305 86 245 3.5 7.8 0.00 0.00 0.00 17 1012.5
20260503033803 85 274 2.6 2.6 0.00 0.00 0.00 18 1012.2
20260503033300 85 108 0.0 1.7 0.00 0.00 0.00 19 1012.3
20260503032758 86 78 0.0 1.7 0.00 0.00 0.00 20 1012.2
20260503032257 86 289 3.5 4.3 0.00 0.00 0.00 19 1012.2
20260503031753 86 245 4.3 6.1 0.00 0.00 0.00 19 1012.2
20260503031252 86 258 3.5 7.8 0.00 0.00 0.00 20 1012.1
20260503030747 86 252 7.0 8.7 0.00 0.00 0.00 20 1011.8
20260503030244 87 258 6.1 9.6 0.00 0.00 0.00 19 1011.8
20260503025741 87 233 5.2 11.3 0.00 0.00 0.00 19 1012.0
20260503025239 87 233 7.0 11.3 0.00 0.00 0.00 20 1011.8
20260503024735 87 240 7.0 8.7 0.00 0.00 0.00 20 1011.8
20260503024232 87 261 4.3 7.8 0.00 0.00 0.00 20 1011.4
20260503023729 88 257 4.3 10.4 0.00 0.00 0.00 21 1011.6
20260503023226 88 313 2.6 7.8 0.00 0.00 0.00 21 1011.4
20260503022722 88 256 4.3 10.4 0.00 0.00 0.00 20 1011.3
20260503022222 88 245 4.3 5.2 0.00 0.00 0.00 20 1011.3
20260503021719 89 196 0.0 1.7 0.00 0.00 0.00 17 1011.4
20260503021215 89 330 0.9 1.7 0.00 0.00 0.00 14 1011.4
20260503020713 89 317 0.9 1.7 0.00 0.00 0.00 15 1011.4
20260503020210 90 48 0.0 1.7 0.00 0.00 0.00 14 1011.2
20260503015707 90 68 0.0 1.7 0.00 0.00 0.00 14 1011.3
20260503015204 90 83 0.9 1.7 0.00 0.00 0.00 14 1011.2
20260503014700 91 94 1.7 2.6 0.00 0.00 0.00 13 1011.1
20260503014158 91 85 1.7 2.6 0.00 0.00 0.00 13 1011.2
20260503013655 91 109 1.7 4.3 0.00 0.00 0.00 13 1011.1
20260503013153 91 99 1.7 2.6 0.00 0.00 0.00 13 1010.9
20260503012649 91 94 1.7 3.5 0.00 0.00 0.00 13 1011.0
20260503012146 92 101 1.7 5.2 0.00 0.00 0.00 13 1011.1
20260503011643 93 97 1.7 3.5 0.00 0.00 0.00 13 1011.2
20260503011140 94 108 3.5 7.8 0.00 0.00 0.00 12 1011.0
20260503010636 94 85 1.7 4.3 0.00 0.00 0.00 12 1011.1
20260503010134 93 94 2.6 5.2 0.00 0.00 0.00 12 1011.1
20260503005631 94 107 2.6 7.0 0.00 0.00 0.00 12 1011.0
20260503005128 94 86 3.5 7.8 0.00 0.00 0.00 12 1011.0
20260503004624 94 93 2.6 5.2 0.00 0.00 0.00 12 1011.1
20260503004123 95 96 4.3 4.3 0.00 0.00 0.00 12 1011.0
20260503003619 95 80 2.6 2.6 0.00 0.00 0.00 12 1011.0
20260503003116 94 116 4.3 7.0 0.00 0.00 0.00 12 1011.2
20260503002613 94 104 3.5 5.2 0.00 0.00 0.00 12 1011.2
20260503002110 95 113 3.5 6.1 0.00 0.00 0.00 12 1011.1
20260503001606 94 106 5.2 11.3 0.00 0.00 0.00 12 1011.2
20260503001103 95 82 1.7 5.2 0.00 0.00 0.00 12 1011.0
20260503000600 95 78 3.5 8.7 0.00 0.00 0.00 12 1011.1
20260503000057 94 71 3.5 9.6 0.00 0.00 0.00 12 1011.3
20260502235554 95 87 6.1 9.6 0.00 0.00 0.00 12 1011.2
20260502235052 95 47 2.6 5.2 0.00 0.00 0.00 12 1011.2
20260502234548 95 61 1.7 4.3 0.00 0.00 0.00 12 1011.3
20260502234046 95 89 5.2 11.3 0.00 0.00 0.00 12 1011.2
20260502233546 97 192 3.5 3.5 0.00 0.00 0.00 11 1011.2
20260502233043 96 134 1.7 7.0 0.00 0.00 0.00 11 1011.3
20260502232534 98 192 1.7 3.5 0.00 0.00 0.00 11 1011.5
20260502232032 98 134 2.6 3.5 0.00 0.00 0.00 11 1011.5
20260502231528 97 80 1.7 3.5 0.00 0.00 0.00 11 1011.5
20260502231026 96 97 2.6 5.2 0.00 0.00 0.00 11 1011.5
20260502230524 96 94 3.5 5.2 0.00 0.00 0.00 11 1011.5
20260502230022 96 106 7.8 9.6 0.00 0.00 0.00 11 1011.6
20260502225522 96 59 2.6 4.3 0.00 0.00 0.00 12 1012.0
20260502225020 97 99 3.5 4.3 0.00 0.00 0.00 11 1012.0
20260502224516 97 47 1.7 4.3 0.00 0.00 0.00 11 1012.1
20260502224013 95 119 2.6 3.5 0.00 0.00 0.00 11 1012.3
20260502223511 96 33 0.9 1.7 0.00 0.00 0.00 11 1012.3
20260502223009 96 93 7.0 7.8 0.00 0.00 0.00 11 1012.2
20260502222506 97 122 5.2 7.8 0.00 0.00 0.00 11 1012.5
20260502222002 98 104 4.3 4.3 0.00 0.00 0.00 11 1012.6
20260502221458 98 257 1.7 6.1 0.00 0.00 0.00 11 1012.7
20260502220955 96 139 1.7 8.7 0.00 0.00 0.00 11 1012.9